Time,TemperatureF,DewpointF,PressureIn,WindDirection,WindDirectionDegrees,WindSpeedMPH,WindSpeedGustMPH,Humidity,HourlyPrecipIn,Conditions,Clouds,dailyrainin,SolarRadiationWatts/m^2,SoftwareType,DateUTC
2013-09-14 00:03:00,49.0,46.0,-100.00,SSE,147,4.0,6.0,88,0.00,,,0.00,0.000000,,2013-09-14 05:03:00,
2013-09-14 00:11:00,54.0,46.0,-100.00,SSE,154,7.0,11.0,75,0.00,,,0.00,0.000000,,2013-09-14 05:11:00,
2013-09-14 00:43:00,54.0,46.0,-100.00,SSE,154,7.0,11.0,75,0.00,,,0.00,0.000000,,2013-09-14 05:43:00,
2013-09-14 00:52:00,54.0,46.0,-100.00,SSE,154,7.0,11.0,75,0.00,,,0.00,0.000000,,2013-09-14 05:52:00,
2013-09-14 01:02:00,54.0,46.0,-100.00,SSE,154,7.0,11.0,75,0.00,,,0.00,0.000000,,2013-09-14 06:02:00,
2013-09-14 01:11:00,52.0,46.0,-100.00,SSE,164,8.0,12.0,79,0.00,,,0.00,0.000000,,2013-09-14 06:11:00,
2013-09-14 01:42:00,52.0,46.0,-100.00,SSE,164,8.0,12.0,79,0.00,,,0.00,0.000000,,2013-09-14 06:42:00,
2013-09-14 01:52:00,52.0,46.0,-100.00,SSE,164,8.0,12.0,79,0.00,,,0.00,0.000000,,2013-09-14 06:52:00,
2013-09-14 02:02:00,52.0,46.0,-100.00,SSE,164,8.0,12.0,79,0.00,,,0.00,0.000000,,2013-09-14 07:02:00,
2013-09-14 02:11:00,51.0,45.0,-100.00,South,170,8.0,11.0,81,0.00,,,0.00,0.000000,,2013-09-14 07:11:00,
2013-09-14 02:42:00,51.0,45.0,-100.00,South,170,8.0,11.0,81,0.00,,,0.00,0.000000,,2013-09-14 07:42:00,
2013-09-14 02:52:00,51.0,45.0,-100.00,South,170,8.0,11.0,81,0.00,,,0.00,0.000000,,2013-09-14 07:52:00,
2013-09-14 03:02:00,51.0,45.0,-100.00,South,170,8.0,11.0,81,0.00,,,0.00,0.000000,,2013-09-14 08:02:00,
2013-09-14 03:11:00,51.0,45.0,-100.00,SSE,165,9.0,12.0,80,0.00,,,0.00,0.000000,,2013-09-14 08:11:00,
2013-09-14 03:42:00,51.0,45.0,-100.00,SSE,165,9.0,12.0,80,0.00,,,0.00,0.000000,,2013-09-14 08:42:00,
2013-09-14 03:52:00,51.0,45.0,-100.00,SSE,165,9.0,12.0,80,0.00,,,0.00,0.000000,,2013-09-14 08:52:00,
2013-09-14 04:02:00,51.0,45.0,-100.00,SSE,165,9.0,12.0,80,0.00,,,0.00,0.000000,,2013-09-14 09:02:00,
2013-09-14 04:11:00,51.0,45.0,-100.00,South,176,9.0,13.0,80,0.00,,,0.00,0.000000,,2013-09-14 09:11:00,
2013-09-14 04:43:00,51.0,45.0,-100.00,South,176,9.0,13.0,80,0.00,,,0.00,0.000000,,2013-09-14 09:43:00,
2013-09-14 04:54:00,51.0,45.0,-100.00,South,176,9.0,13.0,80,0.00,,,0.00,0.000000,,2013-09-14 09:54:00,
2013-09-14 05:03:00,51.0,45.0,-100.00,South,176,9.0,13.0,80,0.00,,,0.00,0.000000,,2013-09-14 10:03:00,
2013-09-14 05:11:00,49.0,44.0,-100.00,South,183,7.0,11.0,84,0.00,,,0.00,0.000000,,2013-09-14 10:11:00,
2013-09-14 05:42:00,49.0,44.0,-100.00,South,183,7.0,11.0,84,0.00,,,0.00,0.000000,,2013-09-14 10:42:00,
2013-09-14 05:53:00,49.0,44.0,-100.00,South,183,7.0,11.0,84,0.00,,,0.00,0.000000,,2013-09-14 10:53:00,
2013-09-14 06:02:00,49.0,44.0,-100.00,South,183,7.0,11.0,84,0.00,,,0.00,0.000000,,2013-09-14 11:02:00,
2013-09-14 06:11:00,50.0,44.0,-100.00,South,183,9.0,12.0,79,0.00,,,-99.99,0.000000,,2013-09-14 11:11:00,
2013-09-14 06:42:00,50.0,44.0,-100.00,South,183,9.0,12.0,79,0.00,,,-99.99,0.000000,,2013-09-14 11:42:00,
2013-09-14 06:52:00,50.0,44.0,-100.00,South,183,9.0,12.0,79,0.00,,,-99.99,0.000000,,2013-09-14 11:52:00,
2013-09-14 07:02:00,50.0,44.0,-100.00,South,183,9.0,12.0,79,0.00,,,-99.99,0.000000,,2013-09-14 12:02:00,
2013-09-14 07:11:00,50.0,44.0,-100.00,South,187,9.0,14.0,80,0.00,,,0.00,6.000000,,2013-09-14 12:11:00,
2013-09-14 07:42:00,50.0,44.0,-100.00,South,187,9.0,14.0,80,0.00,,,0.00,6.000000,,2013-09-14 12:42:00,
2013-09-14 07:52:00,50.0,44.0,-100.00,South,187,9.0,14.0,80,0.00,,,0.00,6.000000,,2013-09-14 12:52:00,
2013-09-14 08:01:00,50.0,44.0,-100.00,South,187,9.0,14.0,80,0.00,,,0.00,6.000000,,2013-09-14 13:01:00,
2013-09-14 08:11:00,54.0,45.0,-100.00,South,186,10.0,15.0,72,0.00,,,0.00,126.000000,,2013-09-14 13:11:00,
2013-09-14 08:42:00,54.0,45.0,-100.00,South,186,10.0,15.0,72,0.00,,,0.00,126.000000,,2013-09-14 13:42:00,
2013-09-14 08:52:00,54.0,45.0,-100.00,South,186,10.0,15.0,72,0.00,,,0.00,126.000000,,2013-09-14 13:52:00,
2013-09-14 09:02:00,54.0,45.0,-100.00,South,186,10.0,15.0,72,0.00,,,0.00,126.000000,,2013-09-14 14:02:00,
2013-09-14 09:11:00,58.0,46.0,-100.00,South,183,10.0,16.0,64,0.00,,,0.00,281.000000,,2013-09-14 14:11:00,
2013-09-14 09:43:00,58.0,46.0,-100.00,South,183,10.0,16.0,64,0.00,,,0.00,281.000000,,2013-09-14 14:43:00,
2013-09-14 09:52:00,58.0,46.0,-100.00,South,183,10.0,16.0,64,0.00,,,0.00,281.000000,,2013-09-14 14:52:00,
2013-09-14 10:02:00,58.0,46.0,-100.00,South,183,10.0,16.0,64,0.00,,,0.00,281.000000,,2013-09-14 15:02:00,
2013-09-14 10:11:00,62.0,48.0,-100.00,South,179,9.0,15.0,60,0.00,,,-99.99,381.000000,,2013-09-14 15:11:00,
2013-09-14 10:43:00,62.0,48.0,-100.00,South,179,9.0,15.0,60,0.00,,,-99.99,381.000000,,2013-09-14 15:43:00,
2013-09-14 10:53:00,62.0,48.0,-100.00,South,179,9.0,15.0,60,0.00,,,-99.99,381.000000,,2013-09-14 15:53:00,
2013-09-14 11:03:00,62.0,48.0,-100.00,South,179,9.0,15.0,60,0.00,,,-99.99,381.000000,,2013-09-14 16:03:00,
2013-09-14 11:11:00,64.0,49.0,-100.00,South,171,11.0,15.0,58,0.00,,,0.00,424.000000,,2013-09-14 16:11:00,
2013-09-14 11:44:00,64.0,49.0,-100.00,South,171,11.0,15.0,58,0.00,,,0.00,424.000000,,2013-09-14 16:44:00,
2013-09-14 11:54:00,64.0,49.0,-100.00,South,171,11.0,15.0,58,0.00,,,0.00,424.000000,,2013-09-14 16:54:00,
2013-09-14 12:03:00,64.0,49.0,-100.00,South,171,11.0,15.0,58,0.00,,,0.00,424.000000,,2013-09-14 17:03:00,
2013-09-14 12:11:00,69.0,52.0,-100.00,South,177,9.0,15.0,54,0.00,,,0.00,320.000000,,2013-09-14 17:11:00,
2013-09-14 12:43:00,69.0,52.0,-100.00,South,177,9.0,15.0,54,0.00,,,0.00,320.000000,,2013-09-14 17:43:00,
2013-09-14 12:54:00,69.0,52.0,-100.00,South,177,9.0,15.0,54,0.00,,,0.00,320.000000,,2013-09-14 17:54:00,
2013-09-14 13:02:00,69.0,52.0,-100.00,South,177,9.0,15.0,54,0.00,,,0.00,320.000000,,2013-09-14 18:02:00,
2013-09-14 13:11:00,65.0,53.0,-100.00,SSW,193,8.0,18.0,65,0.00,,,0.00,195.000000,,2013-09-14 18:11:00,
2013-09-14 13:43:00,65.0,53.0,-100.00,SSW,193,8.0,18.0,65,0.00,,,0.00,195.000000,,2013-09-14 18:43:00,
2013-09-14 13:52:00,65.0,53.0,-100.00,SSW,193,8.0,18.0,65,0.00,,,0.00,195.000000,,2013-09-14 18:52:00,
2013-09-14 14:02:00,65.0,53.0,-100.00,SSW,193,8.0,18.0,65,0.00,,,0.00,195.000000,,2013-09-14 19:02:00,
2013-09-14 14:11:00,64.0,58.0,-100.00,South,188,2.0,9.0,80,0.00,,,0.00,149.000000,,2013-09-14 19:11:00,
2013-09-14 14:42:00,64.0,58.0,-100.00,South,188,2.0,9.0,80,0.00,,,0.00,149.000000,,2013-09-14 19:42:00,
2013-09-14 14:52:00,64.0,58.0,-100.00,South,188,2.0,9.0,80,0.00,,,0.00,149.000000,,2013-09-14 19:52:00,
2013-09-14 15:02:00,64.0,58.0,-100.00,South,188,2.0,9.0,80,0.00,,,0.00,149.000000,,2013-09-14 20:02:00,
2013-09-14 15:11:00,62.0,58.0,-100.00,SE,142,4.0,7.0,86,0.02,,,0.02,88.000000,,2013-09-14 20:11:00,
2013-09-14 15:42:00,62.0,58.0,-100.00,SE,142,4.0,7.0,86,0.02,,,0.02,88.000000,,2013-09-14 20:42:00,
2013-09-14 15:52:00,62.0,58.0,-100.00,SE,142,4.0,7.0,86,0.02,,,0.02,88.000000,,2013-09-14 20:52:00,
2013-09-14 16:02:00,62.0,58.0,-100.00,SE,142,4.0,7.0,86,0.02,,,0.02,88.000000,,2013-09-14 21:02:00,
2013-09-14 16:11:00,60.0,58.0,-100.00,NNE,21,2.0,7.0,94,0.13,,,0.15,62.000000,,2013-09-14 21:11:00,
2013-09-14 16:44:00,60.0,58.0,-100.00,NNE,21,2.0,7.0,94,0.13,,,0.15,62.000000,,2013-09-14 21:44:00,
2013-09-14 16:54:00,60.0,58.0,-100.00,NNE,21,2.0,7.0,94,0.13,,,0.15,62.000000,,2013-09-14 21:54:00,
2013-09-14 17:04:00,60.0,58.0,-100.00,NNE,21,2.0,7.0,94,0.13,,,0.15,62.000000,,2013-09-14 22:04:00,
2013-09-14 17:11:00,58.0,57.0,-100.00,East,96,2.0,8.0,96,0.05,,,0.20,36.000000,,2013-09-14 22:11:00,
2013-09-14 17:42:00,58.0,57.0,-100.00,East,96,2.0,8.0,96,0.05,,,0.20,36.000000,,2013-09-14 22:42:00,
2013-09-14 17:53:00,58.0,57.0,-100.00,East,96,2.0,8.0,96,0.05,,,0.20,36.000000,,2013-09-14 22:53:00,
2013-09-14 18:03:00,58.0,57.0,-100.00,East,96,2.0,8.0,96,0.05,,,0.20,36.000000,,2013-09-14 23:03:00,
2013-09-14 18:11:00,58.0,57.0,-100.00,SE,124,5.0,7.0,97,0.08,,,0.28,16.000000,,2013-09-14 23:11:00,
2013-09-14 18:42:00,58.0,57.0,-100.00,SE,124,5.0,7.0,97,0.08,,,0.28,16.000000,,2013-09-14 23:42:00,
2013-09-14 18:53:00,58.0,57.0,-100.00,SE,124,5.0,7.0,97,0.08,,,0.28,16.000000,,2013-09-14 23:53:00,
2013-09-14 19:02:00,58.0,57.0,-100.00,SE,124,5.0,7.0,97,0.08,,,0.28,16.000000,,2013-09-15 00:02:00,
2013-09-14 19:11:00,57.0,57.0,-100.00,East,83,6.0,9.0,100,0.22,,,0.50,7.000000,,2013-09-15 00:11:00,
2013-09-14 19:42:00,57.0,57.0,-100.00,East,83,6.0,9.0,100,0.22,,,0.50,7.000000,,2013-09-15 00:42:00,
2013-09-14 19:53:00,57.0,57.0,-100.00,East,83,6.0,9.0,100,0.22,,,0.50,7.000000,,2013-09-15 00:53:00,
2013-09-14 20:01:00,57.0,57.0,-100.00,East,83,6.0,9.0,100,0.22,,,0.50,7.000000,,2013-09-15 01:01:00,
2013-09-14 20:11:00,56.0,55.0,-100.00,ESE,102,9.0,13.0,98,0.01,,,0.51,1.000000,,2013-09-15 01:11:00,
2013-09-14 20:42:00,56.0,55.0,-100.00,ESE,102,9.0,13.0,98,0.01,,,0.51,1.000000,,2013-09-15 01:42:00,
2013-09-14 20:52:00,56.0,55.0,-100.00,ESE,102,9.0,13.0,98,0.01,,,0.51,1.000000,,2013-09-15 01:52:00,
2013-09-14 21:02:00,56.0,55.0,-100.00,ESE,102,9.0,13.0,98,0.01,,,0.51,1.000000,,2013-09-15 02:02:00,
2013-09-14 21:11:00,56.0,56.0,-100.00,East,99,9.0,15.0,100,0.02,,,0.53,0.000000,,2013-09-15 02:11:00,
2013-09-14 21:42:00,56.0,56.0,-100.00,East,99,9.0,15.0,100,0.02,,,0.53,0.000000,,2013-09-15 02:42:00,
2013-09-14 21:52:00,56.0,56.0,-100.00,East,99,9.0,15.0,100,0.02,,,0.53,0.000000,,2013-09-15 02:52:00,
2013-09-14 22:02:00,56.0,56.0,-100.00,East,99,9.0,15.0,100,0.02,,,0.53,0.000000,,2013-09-15 03:02:00,
2013-09-14 22:11:00,56.0,56.0,-100.00,ESE,111,8.0,14.0,99,0.01,,,0.54,0.000000,,2013-09-15 03:11:00,
2013-09-14 22:44:00,56.0,56.0,-100.00,ESE,111,8.0,14.0,99,0.01,,,0.54,0.000000,,2013-09-15 03:44:00,
2013-09-14 22:55:00,56.0,56.0,-100.00,ESE,111,8.0,14.0,99,0.01,,,0.54,0.000000,,2013-09-15 03:55:00,
2013-09-14 23:02:00,-999.0,-99.9,-100.00,ESE,111,8.0,14.0,-999,-99.99,,,-99.99,0.000000,,2013-09-15 04:02:00,
2013-09-14 23:11:00,56.0,56.0,-100.00,ESE,104,7.0,12.0,100,0.00,,,0.54,0.000000,,2013-09-15 04:11:00,
2013-09-14 23:43:00,56.0,56.0,-100.00,ESE,104,7.0,12.0,100,0.00,,,0.54,0.000000,,2013-09-15 04:43:00,
2013-09-14 23:54:00,56.0,56.0,-100.00,ESE,104,7.0,12.0,100,0.00,,,0.54,0.000000,,2013-09-15 04:54:00,